Messwerte Fort Lewis

Temperatur

Temperatur
°C
1593810000 14.00 14.00 17
1593813600 15.00 15.00 18
1593817200 16.00 16.00
1593820800 17.00 17.00 18
1593824400 18.00 18.00 18
1593828000 19.00 19.00 18
1593831600 20.00 20.00 17
1593835200 21.00 21.00 16
1593838800 22.00 22.00 16
1593842400 23.00 23.00 15
1593846000 0.00 0.00 14
1593849600 1.00 1.00 12
1593853200 2.00 2.00 11
1593856800 3.00 3.00 10
1593860400 4.00 4.00 10
1593864000 5.00 5.00 9
1593867600 6.00 6.00 11
1593871200 7.00 7.00 12
1593874800 8.00 8.00 12
1593878400 9.00 9.00 13
1593882000 10.00 10.00
1593885600 11.00 11.00 17
1593889200 12.00 12.00 18
1593892800 13.00 13.00 19

Aktuellste Messwerte

Wettercharakter
Wetter: wechselnd bewölkt
Temperatur
20 °C
Feuchtigkeit
65 %
Wind
15 km/hWindrichtung: Nordwest
Luftdruck
1023 hPa
Messzeit: 4. Juli 2020, 14.00Datenquelle: METAR

Weitere Messstationen in der Nähe

Messstation Temperatur Entfernung
Tacoma 20 °C 6 km
Tacoma 20 °C 16 km
Olympia 19 °C 31 km
Seattle 19 °C 41 km
Seattle Boeing 20 °C 41 km
Bremerton 19 °C 45 km
Shelton 19 °C 47 km

Wind

Windrichtung Böen Mittelwind
° km/h km/h
1593810000 14.00 13.00 - 14.00 270° 10
1593813600 15.00 14.00 - 15.00 200° 5
1593817200 16.00 15.00 - 16.00
1593820800 17.00 16.00 - 17.00 240° 10
1593824400 18.00 17.00 - 18.00 210° 5
1593828000 19.00 18.00 - 19.00 220° 10
1593831600 20.00 19.00 - 20.00 260° 10
1593835200 21.00 20.00 - 21.00 260° 10
1593838800 22.00 21.00 - 22.00 260° 10
1593842400 23.00 22.00 - 23.00 260° 15
1593846000 0.00 23.00 - 0.00 260° 10
1593849600 1.00 0.00 - 1.00 50° 5
1593853200 2.00 1.00 - 2.00 0
1593856800 3.00 2.00 - 3.00 0
1593860400 4.00 3.00 - 4.00 0
1593864000 5.00 4.00 - 5.00 140° 5
1593867600 6.00 5.00 - 6.00 130° 0
1593871200 7.00 6.00 - 7.00 130° 5
1593874800 8.00 7.00 - 8.00 130° 5
1593878400 9.00 8.00 - 9.00 0
1593882000 10.00 9.00 - 10.00
1593885600 11.00 10.00 - 11.00 220° 5
1593889200 12.00 11.00 - 12.00 10° 5
1593892800 13.00 12.00 - 13.00 260° 5

Ihre Wetterstation

Fehlt Ihre Wetterstation auf unserem Portal?

Schreiben Sie an network@meteonews.ch

Klima

Wann ist es am wärmsten? Wann regnet es am wenigsten? Unsere Klimadaten geben Auskunft.